Caldwell, ID

7:44 PM MDT on March 22, 2017 (GMT -0600)
Caldwell Industrial

Weather History for KEUL - June, 2013

Change the Weather History Date:

Monday, June 17, 2013

  Actual Average (KBOI) Record (KBOI)
Temperature  
Mean Temperature 73 °F -  
Max Temperature 91 °F 81 °F 105 °F (1974)
Min Temperature 55 °F 51 °F 35 °F (1895)
Cooling Degree Days 8    
Growing Degree Days 23 (Base 50)    
Moisture  
Dew Point 43 °F    
Average Humidity 36    
Maximum Humidity 59    
Minimum Humidity 16    
Precipitation  
Precipitation 0.00 in - - ()
Sea Level Pressure  
Sea Level Pressure 29.91 in    
Wind  
Wind Speed 4 mph (North)    
Max Wind Speed 14 mph    
Max Gust Speed -    
Visibility 10 miles    
Events      
Averages and records for this station are not official NWS values.
T = Trace of Precipitation, MM = Missing Value Source: NWS Daily Summary

Daily Weather History Graph

Daily Weather History Graph

Search for Another Location

Airport or City:

Trip Planner

Search our weather history database for the weather conditions in past years. The results will help you decide how hot, cold, wet, or windy it might be!

Date:

Astronomy

Jun. 17, 2013 Rise Set
Actual Time 6:04 AM MDT 9:30 PM MDT
Civil Twilight 5:28 AM MDT 10:06 PM MDT
Nautical Twilight 4:41 AM MDT 10:53 PM MDT
Astronomical Twilight 3:42 AM MDT 11:53 PM MDT
Moon 3:05 PM MDT (6/17) 1:53 AM MDT (6/17)
Length of Visible Light 16h 38m
Length of Day
15h 26m
First Quarter, 61% of the Moon is Illuminated
Jun 17
First Quarter
Jun 23
Full
Jun 29
Last Quarter
Jul 8
New
Jul 15
First Quarter

Hourly Weather History & Observations

Time (MDT) Temp. Dew Point Humidity Pressure Visibility Wind Dir Wind Speed Gust Speed Precip Events Conditions
12:15 AM 60.8 °F 44.6 °F 55% 29.92 in 10.0 mi Calm Calm - N/A   Clear
12:35 AM 62.6 °F 42.8 °F 48% 29.93 in 10.0 mi Calm Calm - N/A   Clear
12:55 AM 62.6 °F 42.8 °F 48% 29.93 in 10.0 mi Calm Calm - N/A   Clear
1:15 AM 62.6 °F 44.6 °F 52% 29.93 in 10.0 mi Calm Calm - N/A   Clear
1:35 AM 62.6 °F 42.8 °F 48% 29.94 in 10.0 mi West 4.6 mph - N/A   Clear
1:55 AM 62.6 °F 42.8 °F 48% 29.94 in 10.0 mi WSW 3.5 mph - N/A   Clear
2:15 AM 64.4 °F 41.0 °F 42% 29.95 in 10.0 mi WSW 3.5 mph - N/A   Clear
2:35 AM 64.4 °F 39.2 °F 40% 29.95 in 10.0 mi West 8.1 mph - N/A   Clear
2:55 AM 64.4 °F 37.4 °F 37% 29.95 in 10.0 mi West 5.8 mph - N/A   Clear
3:15 AM 64.4 °F 39.2 °F 40% 29.96 in 10.0 mi WSW 9.2 mph - N/A   Clear
3:35 AM 64.4 °F 39.2 °F 40% 29.96 in 10.0 mi West 8.1 mph - N/A   Clear
3:55 AM 62.6 °F 39.2 °F 42% 29.97 in 10.0 mi West 6.9 mph - N/A   Clear
4:15 AM 60.8 °F 39.2 °F 45% 29.97 in 10.0 mi Calm Calm - N/A   Clear
4:35 AM 57.2 °F 39.2 °F 51% 29.97 in 10.0 mi NW 3.5 mph - N/A   Clear
4:55 AM 60.8 °F 39.2 °F 45% 29.98 in 10.0 mi WNW 4.6 mph - N/A   Clear
5:15 AM 57.2 °F 39.2 °F 51% 29.98 in 10.0 mi Calm Calm - N/A   Clear
5:35 AM 60.8 °F 39.2 °F 45% 29.98 in 10.0 mi Calm Calm - N/A   Clear
5:55 AM 57.2 °F 39.2 °F 51% 29.99 in 10.0 mi NW 4.6 mph - N/A   Clear
6:15 AM 57.2 °F 39.2 °F 51% 29.99 in 10.0 mi NW 3.5 mph - N/A   Clear
6:35 AM 57.2 °F 41.0 °F 55% 30.00 in 10.0 mi Calm Calm - N/A   Clear
6:55 AM 55.4 °F 41.0 °F 58% 30.00 in 10.0 mi North 4.6 mph - N/A   Clear
7:15 AM 57.2 °F 42.8 °F 59% 30.00 in 10.0 mi North 6.9 mph - N/A   Clear
7:35 AM 59.0 °F 42.8 °F 55% 30.01 in 10.0 mi Calm Calm - N/A   Clear
7:55 AM 62.6 °F 44.6 °F 52% 30.02 in 10.0 mi WNW 3.5 mph - N/A   Clear
8:15 AM 64.4 °F 44.6 °F 49% 30.02 in 10.0 mi NW 4.6 mph - N/A   Clear
8:35 AM 66.2 °F 42.8 °F 43% 30.03 in 10.0 mi NNW 5.8 mph - N/A   Clear
8:55 AM 68.0 °F 42.8 °F 40% 30.02 in 10.0 mi NNW 6.9 mph - N/A   Clear
9:35 AM 69.8 °F 44.6 °F 40% 30.03 in 10.0 mi North 9.2 mph - N/A   Clear
9:55 AM 73.4 °F 44.6 °F 36% 30.02 in 10.0 mi NW 13.8 mph - N/A   Clear
10:15 AM 73.4 °F 44.6 °F 36% 30.02 in 10.0 mi NW 9.2 mph - N/A   Clear
10:35 AM 73.4 °F 44.6 °F 36% 30.01 in 10.0 mi NNW 9.2 mph - N/A   Clear
10:55 AM 75.2 °F 44.6 °F 34% 30.01 in 10.0 mi NNW 9.2 mph - N/A   Clear
11:15 AM 75.2 °F 46.4 °F 36% 30.00 in 10.0 mi North 9.2 mph - N/A   Clear
11:35 AM 77.0 °F 46.4 °F 34% 30.00 in 10.0 mi North 8.1 mph - N/A   Clear
11:55 AM 78.8 °F 46.4 °F 32% 29.99 in 10.0 mi North 8.1 mph - N/A   Clear
12:15 PM 80.6 °F 46.4 °F 30% 29.99 in 8.0 mi North 6.9 mph - N/A   Clear
12:35 PM 82.4 °F 46.4 °F 28% 29.98 in 10.0 mi NNE 9.2 mph - N/A   Clear
12:55 PM 82.4 °F 44.6 °F 26% 29.98 in 10.0 mi North 6.9 mph - N/A   Clear
1:15 PM 82.4 °F 44.6 °F 26% 29.97 in 10.0 mi North 4.6 mph - N/A   Clear
1:35 PM 84.2 °F 46.4 °F 27% 29.96 in 10.0 mi North 3.5 mph - N/A   Clear
1:55 PM 84.2 °F 44.6 °F 25% 29.95 in 10.0 mi ENE 5.8 mph - N/A   Clear
2:15 PM 86.0 °F 44.6 °F 23% 29.94 in 10.0 mi East 4.6 mph - N/A   Clear
2:35 PM 87.8 °F 44.6 °F 22% 29.93 in 10.0 mi ENE 8.1 mph - N/A   Clear
2:55 PM 87.8 °F 44.6 °F 22% 29.91 in 10.0 mi ENE 6.9 mph - N/A   Clear
3:55 PM 89.6 °F 42.8 °F 20% 29.88 in 10.0 mi East 4.6 mph - N/A   Clear
4:15 PM 89.6 °F 41.0 °F 18% 29.87 in 10.0 mi NNE 5.8 mph - N/A   Clear
4:35 PM 89.6 °F 39.2 °F 17% 29.86 in 10.0 mi ENE 6.9 mph - N/A   Clear
4:55 PM 91.4 °F 39.2 °F 16% 29.85 in 10.0 mi East 5.8 mph - N/A   Clear
5:35 PM 89.6 °F 42.8 °F 20% 29.83 in 10.0 mi East 8.1 mph - N/A   Clear
5:55 PM 91.4 °F 42.8 °F 18% 29.82 in 10.0 mi NE 10.4 mph - N/A   Clear
6:15 PM 89.6 °F 44.6 °F 21% 29.80 in 10.0 mi NE 10.4 mph - N/A   Clear
6:35 PM 89.6 °F 46.4 °F 22% 29.80 in 10.0 mi NE 6.9 mph - N/A   Clear
6:55 PM 89.6 °F 44.6 °F 21% 29.79 in 10.0 mi NE 8.1 mph - N/A   Clear
7:15 PM 89.6 °F 46.4 °F 22% 29.78 in 10.0 mi NE 5.8 mph - N/A   Clear
7:35 PM 87.8 °F 50.0 °F 27% 29.77 in 10.0 mi NNE 6.9 mph - N/A   Clear
7:55 PM 86.0 °F 51.8 °F 31% 29.77 in 10.0 mi NNE 5.8 mph - N/A   Clear
8:15 PM 84.2 °F 51.8 °F 33% 29.76 in 10.0 mi ENE 6.9 mph - N/A   Clear
8:35 PM 84.2 °F 46.4 °F 27% 29.76 in 10.0 mi NE 6.9 mph - N/A   Clear
8:55 PM 80.6 °F 51.8 °F 37% 29.76 in 10.0 mi NE 6.9 mph - N/A   Clear
9:15 PM 80.6 °F 44.6 °F 28% 29.76 in 10.0 mi ENE 4.6 mph - N/A   Clear
9:55 PM 77.0 °F 42.8 °F 29% 29.76 in 10.0 mi SE 5.8 mph - N/A   Clear
10:15 PM 78.8 °F 42.8 °F 28% 29.76 in 10.0 mi South 4.6 mph - N/A   Clear
10:35 PM 77.0 °F 42.8 °F 29% 29.76 in 10.0 mi SSW 3.5 mph - N/A   Clear
10:55 PM 75.2 °F 42.8 °F 31% 29.76 in 10.0 mi SSE 5.8 mph - N/A   Clear
11:15 PM 69.8 °F 44.6 °F 40% 29.76 in 10.0 mi East 4.6 mph - N/A   Clear
11:35 PM 69.8 °F 44.6 °F 40% 29.76 in 10.0 mi ESE 4.6 mph - N/A   Clear
11:55 PM 68.0 °F 42.8 °F 40% 29.76 in 10.0 mi South 6.9 mph - N/A   Clear